Tracking 29892 objects as of 21-Nov-2024
HD Live streaming from Space Station
objects crossing your sky now

STARLINK-3106

Track STARLINK-3106 now!
10-day predictions
STARLINK-3106 is classified as:


NORAD ID: 49164
Int'l Code: 2021-082AL
Perigee: 577.1 km
Apogee: 581.2 km
Inclination: 70.0 °
Period: 96.1 minutes
Semi major axis: 6950 km
RCS: Unknown
Launch date: September 14, 2021
Source: United States (US)
Launch site: AIR FORCE WESTERN TEST RANGE (AFWTR)
Your satellite tracking list
Your tracking list is empty




NASA's NSSDC Master Catalog

Two Line Element Set (TLE):
1 49164U 21082AL  24325.17551265  .00000963  00000-0  88468-4 0  9991
2 49164  70.0001  30.8813 0002948 269.0904  90.9917 14.98340906176564
Source of the keplerian elements: AFSPC